STARLINK-34523, 64475

Orbit data source: Space-Track

STARLINK-34523, 64475 is a payload satellite owned by SpaceX/Seattle (US) in LEO that was launched on Mon, 23 Jun 2025 UTC via an FALCON 9 launch vehicle from the Air Force Eastern Test Range (AFETR). Payload-class satellites include a variety of spacecraft equipped with specific instruments for various scientific and technological missions. These include communications satellites like Starlink; space stations such as the ISS; scientific satellites like the Hubble; Earth observation satellites from companies like Planet Labs, Umbra, and HawkEye 360; GPS; miniature CubeSats for education and research; and military/defense satellites.

Loading next visibility...
Identifier
64475, 2025-133D
Orbit
LEO
Last TLE update
6 hours ago
Origin
Manufacturer
SpaceX/Seattle
Mission
Operational spacecraft
Bus & Motor
STARLINK V2MO, Unknown motor
Mass
575 kg wet, ~530 kg dry
Launch date (UTC)
2025-06-23 (1 week ago)
Launch vehicle
FALCON 9
Launch site
Air Force Eastern Test Range (AFETR)
Object type
Payload
Rocket body
Debris
Shape & HBR
Unknown
Radar Cross Section
RCS unknown

Expand to show TLE details & history

TLE from 6 hours ago
0 STARLINK-34523
1 64475U 25133D   25182.50002315 -.01030095  00000-0 -45036-2 0  9994
2 64475  53.1561 216.3063 0000906  63.7060 212.9510 15.86418704  2520
Epoch: 2025-07-01T12:00Z
TLE epoch observation values (Epoch: 2025-07-01T12:00:02Z)
Latitude
-52.80285°
Longitude
37.48233°
Altitude
331.161 km
Speed
7.709 km/s
True Right ascension
09h 09m 08s
True Declination
-52° 37' 35"
Sunlit
Object was in daylight at epoch
Visualization orbit readout
Latitude
-49.80479°
Longitude
53.35698°
Altitude
331.563 km
Speed
7.709 km/s
Apparent Right ascension
14h 20m 05s
Apparent Declination
-60° 54' 02"
Sunlit
Object is in daylight
Visualization observer readout
Local Sidereal Time
05:45:29
Azimuth
141.37° SSE
Elevation
-52.527°
Doppler factor
1
Orbital elements
Apogee altitude
313.202 km
Perigee altitude
311.99 km
Semi-major axis
6,690.733 km
Eccentricity
0.00009
Inclination
53.1561°
RAAN
216.3063°
Arg. of periapsis
63.706°
True anomaly
Unknown
Mean anomaly
212.951°
Eccentric anomaly
Unknown
Mean motion
3.96582 °/min
Orbital period
90.78 mins
BSTAR
-0.0045036
Loading maneuver chart data...
Loading SW <> Apogee altitude chart data...
Loading historical data...
Loading historical data...
Loading historical data...
Loading historical data...
Loading historical data...
Loading historical data...
Loading historical data...

STARLINK-34523 Visibility forecast

Observer location: undefined°, undefined°

Span
Click to sort rows by Start time (UTC) header in descending order
Start Az.
Max El. time (UTC)
Max El. Az.
Max El.
End time (UTC)
End Az.
5 mins2025-07-02 05:10:47.074Z237.313° WSW2025-07-02 05:12:47.074Z264.776° W38.921°2025-07-02 05:15:47.074Z45.299° ENE
5 mins2025-07-02 11:31:47.074Z317.589° NNW2025-07-02 11:33:47.074Z353.893° N37.413°2025-07-02 11:36:47.074Z119.353° SE
|